Location: Porsel
(46.6008°N, 6.8671°E)
Time: 07:04:09
(UTC+00:00)

Daily predictions for brighter satellites

Satellite Brightness Start Highest point End
(mag) Time Altitude Azimuth Time Altitude Azimuth Time Altitude Azimuth
CZ-2C R/B 4.4 16:49:20 10° ESE 16:53:36 22° ENE 16:57:48 10° NNE
SMAP 3.1 16:49:17 10° SSE 16:53:55 84° ENE 16:58:37 10° NNW
Meteor 2-14 Rocket 4.5 16:48:09 10° N 16:54:18 67° ENE 17:00:22 10° SSE
Cosmos 2219 3.7 16:49:31 10° NNW 16:54:57 40° NE 17:00:20 10° ESE
Cosmos 1726 Rocket 4.0 16:52:44 10° SSE 16:56:46 39° E 17:00:52 10° NNE
Cosmos 1943 Rocket 4.5 16:53:02 10° W 16:56:47 18° NW 17:00:32 10° N
Cosmos 1758 Rocket 3.6 16:55:18 10° N 16:59:44 90° ESE 17:04:06 10° S
USA 307 3.9 16:56:43 10° NW 17:00:39 34° NNE 17:04:35 10° ENE
Meteor 2-21 4.4 16:54:48 10° N 17:01:01 79° E 17:07:06 10° SSE
Cosmos 1328 4.1 16:57:19 10° NNW 17:01:17 73° W 17:05:12 10° S
FALCON 9 DEB 3.4 17:00:32 10° SW 17:03:40 47° SE 17:06:44 10° ENE
Cosmos 2228 3.0 16:59:36 10° S 17:03:47 63° E 17:08:02 10° NNE
YAOGAN 6 3.5 17:00:39 10° S 17:04:13 55° W 17:07:52 10° NNW
Cosmos 1939 Rocket 3.4 17:01:21 10° SE 17:04:57 34° ENE 17:08:31 10° N
USA 308 3.8 17:01:34 10° NW 17:05:31 35° NNE 17:09:20 11° E
CZ-4B R/B 1.3 17:02:46 10° NNE 17:05:58 57° E 17:09:03 10° S
ATLAS 5 CENTAUR R/B 3.9 17:04:27 10° WNW 17:07:26 17° NNW 17:10:43 10° NNE
Helios 1A Rocket 3.7 17:08:34 10° SE 17:12:11 30° ENE 17:15:47 10° N
Cosmos 1606 Rocket 3.5 17:07:59 10° S 17:12:19 74° E 17:16:44 10° NNE
GENESIS II 4.4 17:11:06 10° SW 17:15:08 81° NW 17:19:12 10° NE
FALCON 9 DEB 3.0 17:12:06 10° SW 17:15:18 63° SE 17:17:56 14° ENE
CZ-4B R/B 4.0 17:10:31 10° S 17:16:02 59° WSW 17:21:30 10° NNW
Okean-O 3.3 17:14:40 10° SE 17:18:38 33° ENE 17:22:37 10° N
SKYMED 2 3.9 17:15:58 10° NNE 17:20:08 42° E 17:24:15 10° S
Cosmos 1656 4.1 17:16:07 10° S 17:21:13 39° ESE 17:26:25 10° NE
Cosmos 1689 Rocket 2.7 17:18:42 10° NNE 17:21:20 31° E 17:23:58 10° SSE
Cosmos 1400 Rocket 3.1 17:20:07 10° S 17:24:04 46° E 17:28:00 10° NNE
H-2A R/B 3.1 17:22:05 10° ESE 17:26:34 27° ENE 17:31:05 10° N
PSLV R/B 4.3 17:24:27 10° NNE 17:28:25 41° E 17:32:20 10° S
GEOS 3 Rocket 4.4 17:24:32 13° E 17:28:48 36° NE 17:33:40 10° NNW
CZ-4 R/B 1.9 17:25:24 10° SE 17:28:56 34° ENE 17:32:26 10° N
Cosmos 2227 Rocket 2.3 17:23:27 10° NNW 17:29:00 54° ENE 17:34:32 10° SE
Cosmos 2058 3.8 17:26:14 10° NNE 17:29:46 27° ENE 17:33:16 10° SE
Meteor 2-16 Rocket 4.4 17:23:55 10° N 17:30:03 85° E 17:36:09 10° S
Cosmos 1892 3.2 17:27:33 10° N 17:31:10 36° ENE 17:34:46 10° SE
Cosmos 2263 Rocket 3.9 17:30:50 10° N 17:33:59 15° NE 17:35:34 13° NE
CSL-04 Rocket 4.4 17:29:59 10° SE 17:34:50 32° ENE 17:39:41 10° N
BREEZE-M R/B 4.0 17:25:54 10° W 17:35:16 64° N 17:37:09 22° ENE
Cosmos 1408 3.5 17:32:12 10° NNE 17:35:20 26° ENE 17:37:15 17° ESE
Cosmos 1244 Rocket 4.4 17:31:24 10° N 17:37:39 81° E 17:43:54 10° S
CZ-4C R/B 4.2 17:35:27 10° NNW 17:40:18 21° NNE 17:44:24 14° NE
Cosmos 1953 Rocket 4.0 17:37:40 10° NNW 17:42:03 65° W 17:46:26 10° S
Cosmos 1300 3.2 17:38:40 10° SSW 17:42:27 61° WNW 17:46:15 10° N
Cosmos 2058 Rocket 3.0 17:41:13 10° S 17:45:42 82° E 17:50:14 10° N
Cosmos 1697 Rocket 3.3 17:40:53 10° SSE 17:45:50 33° ESE 17:49:37 16° NE
SL-4 R/B 2.6 17:44:11 10° WNW 17:47:33 37° N 17:49:04 25° NE
IRS-1C Rocket 4.1 17:42:22 10° SSE 17:47:38 85° WSW 17:52:57 10° NNW
CZ-2D R/B 3.1 17:44:01 10° SSE 17:47:49 75° ENE 17:51:38 10° N
SeaSat 1 3.4 17:46:27 22° E 17:48:15 28° NE 17:52:26 10° N
Cosmos 1346 Rocket 3.0 17:46:16 10° N 17:50:06 44° ENE 17:53:56 10° SSE
NOSS 3-3 (A) 4.4 17:45:13 10° S 17:50:29 38° ESE 17:54:18 20° ENE
NOSS 3-3 (C) 4.4 17:45:18 10° S 17:50:36 38° ESE 17:54:24 20° ENE
USA 305 3.3 17:47:27 10° NW 17:51:39 50° NNE 17:53:27 30° E
Cosmos 1825 3.3 17:49:03 10° NNE 17:51:37 25° NE 17:51:37 25° NE
IRS-P2 Rocket 4.5 17:48:04 10° SSE 17:53:16 77° ENE 17:58:36 10° NNW
Cosmos 44 3.7 17:49:51 10° SW 17:54:18 57° NW 17:59:05 10° NNE
Cosmos 1315 Rocket 3.3 17:51:39 10° SSE 17:55:16 35° E 17:56:19 29° ENE
USA 215 4.0 17:51:39 20° ENE 17:55:40 39° NNE 18:01:38 10° NW
USA 306 3.2 17:53:51 10° NW 17:58:04 53° NNE 17:59:35 34° E
ERS-2 4.2 17:56:14 10° N 17:59:23 28° WNW 18:02:32 10° SW
SAR-Lupe-4 4.5 17:55:55 10° N 17:59:24 49° WNW 18:02:52 10° SSW
BREEZE-M R/B 3.7 17:57:36 10° WNW 18:01:30 66° NNE 18:05:18 27° E
ATLAS 2AS CENTAUR R/B 3.7 17:55:25 10° NW 18:02:14 33° NNE 18:05:17 24° ENE
Cosmos 968 Rocket 3.4 17:59:13 10° NNW 18:04:28 84° ENE 18:09:39 10° SSE
Cosmos 1340 3.3 18:01:16 10° NNW 18:04:59 57° W 18:08:42 10° S
COSMO-SKYMED 1 3.1 18:03:56 10° N 18:08:14 61° WNW 18:12:30 10° SSW
Cosmos 1980 Rocket 3.2 18:03:55 10° SSE 18:07:19 25° SE 18:07:19 25° SE
Cosmos 2297 Rocket 2.5 18:03:17 10° NNW 18:08:55 67° WSW 18:14:30 10° SSE
MOS 1 Rocket 3.5 18:04:30 10° NNE 18:09:02 47° E 18:13:49 10° S
Cosmos 1076 Rocket 3.5 18:05:59 10° N 18:10:09 52° ENE 18:11:35 35° SE
In-Cosmos 22 Rocket 4.4 18:05:52 10° NNW 18:11:12 69° W 18:16:37 10° S
Aureole 3 Rocket 3.8 18:07:27 10° SSW 18:11:22 59° WNW 18:16:49 10° N
Cosmos 2315 Rocket 4.4 18:09:09 10° SSE 18:14:47 38° E 18:20:26 10° NNE
CSL-04 Debris 4.1 18:09:44 10° SSE 18:15:07 69° ENE 18:20:34 10° N
S3M 3.8 18:09:08 10° S 18:15:11 73° E 18:21:22 10° NNE
Lacrosse 5 3.3 18:17:57 10° NW 18:22:10 26° N 18:23:29 23° NNE
FALCON 9 DEB 4.2 18:19:21 10° NW 18:22:07 34° N 18:22:07 34° N
YAOGAN 1 2.7 18:18:34 10° S 18:22:53 72° WSW 18:27:13 10° NNW
FALCON 9 DEB 3.8 18:20:24 10° W 18:23:30 44° NNW 18:23:30 44° NNW
Cosmos 2360 4.3 18:19:04 10° S 18:24:35 52° ESE 18:26:15 39° ENE
Cosmos 1486 Rocket 4.4 18:19:38 10° NNW 18:24:56 64° WSW 18:30:10 10° S
FALCON 9 DEB 4.0 18:24:40 10° W 18:27:30 39° NNW 18:27:30 39° NNW
Cosmos 1812 Rocket 3.4 18:25:44 10° S 18:30:06 70° E 18:30:37 62° NE
Cosmos 1455 2.1 18:27:08 10° S 18:30:53 85° W 18:31:13 73° N
CZ-2C R/B 3.6 18:27:11 10° S 18:32:58 69° WSW 18:38:37 10° NNW
Cosmos 1503 Rocket 3.9 18:29:33 10° NNW 18:34:48 90° WNW 18:37:12 34° SSE
Cosmos 44 Rocket 4.1 18:32:27 10° SSW 18:35:27 34° SSE 18:35:27 34° SSE
Cosmos 2278 4.1 18:32:26 10° S 18:36:45 42° SE 18:36:45 42° SE
DMSP B5D1-3 4.4 18:34:20 10° NNE 18:39:30 87° WNW 18:44:40 10° SSW
USA 307 2.9 18:36:49 10° WNW 18:40:52 79° NW 18:40:52 79° NW
Meteor 2-10 Rocket 3.9 18:39:06 10° SSW 18:44:21 62° WNW 18:49:28 10° N
USA 308 3.0 18:41:39 10° WNW 18:45:31 72° WNW 18:45:31 72° WNW
Cosmos 1354 Rocket 4.0 18:41:05 10° NNW 18:46:22 83° WSW 18:47:53 48° S
Cosmos 2082 3.9 18:42:17 10° NNW 18:48:00 71° WSW 18:50:45 32° S
ATLAS 5 CENTAUR R/B 4.3 18:52:19 10° NNW 18:54:12 12° N 18:55:01 12° NNE
Cosmos 1992 Rocket 4.4 18:51:22 10° SW 18:56:30 61° WNW 18:59:48 22° N
ARGOS 3.2 18:54:41 38° S 18:56:49 78° WSW 19:02:17 10° NNW
Cosmos 2369 3.7 18:55:45 10° SSW 19:01:28 78° WNW 19:03:11 47° NNE
CZ-4 R/B 3.9 19:01:06 10° SW 19:04:03 20° W 19:06:59 10° NW
H-2A R/B 2.9 19:00:27 10° S 19:05:41 50° W 19:11:01 10° NNW
Ariane Rocket 4.1 19:07:51 35° N 19:07:51 35° N 19:10:50 10° N
GEOS 3 Rocket 4.1 19:05:41 51° SSW 19:06:36 59° SW 19:11:56 10° NW
Cosmos 2227 Rocket 4.2 19:08:07 10° NW 19:12:43 26° WSW 19:17:18 10° SSW
Cosmos 2263 Rocket 3.0 19:13:27 10° NNW 19:17:16 41° N 19:17:16 41° N
Atlas Centaur 2 4.3 19:13:14 10° SW 19:19:47 25° S 19:20:08 25° S
SeaSat 1 3.3 19:26:15 48° W 19:26:15 48° W 19:30:22 10° NW
Cosmos 1697 Rocket 3.7 19:24:19 10° SW 19:29:40 43° NW 19:31:25 33° NNW
CZ-4C R/B 3.4 19:23:54 10° NNW 19:29:36 44° NNE 19:29:36 44° NNE
NOSS 3-4 (A) 3.7 19:24:54 10° NW 19:31:39 83° N 19:31:39 83° N
NOSS 3-4 (C) 3.7 19:25:01 10° NW 19:31:43 83° N 19:31:43 83° N
DEBRIS 4.3 19:23:26 10° WSW 19:36:49 73° WNW 19:36:49 73° WNW
USA 215 3.4 19:39:00 64° NNW 19:39:00 64° NNW 19:44:40 10° NW
Cosmos 1980 Rocket 3.9 19:46:47 10° SW 19:49:11 25° WSW 19:49:11 25° WSW
ATLAS 2AS CENTAUR R/B 3.1 19:46:35 10° NW 19:52:43 62° NW 19:52:43 62° NW
Lacrosse 5 4.2 20:01:13 10° NW 20:02:41 19° NW 20:02:41 19° NW
